星链-5392 (STARLINK-5392 )

导读 | 星芒AI

STARLINK-5392 是 SpaceX Starlink 卫星互联网项目中的一颗低轨通信卫星。它属于 Starlink 群体部署计划的一部分,旨在为全球用户提供高速、低延迟的互联网服务。该卫星运行在约 550 公里的轨道高度,采用先进的通信技术,支持宽带数据传输。作为 Starlink 系统的重要组成,它有助于扩大网络覆盖范围,特别是在偏远和网络基础设施薄弱的地区。该卫星于 2023 年由 Falcon 9 火箭发射入轨,是 SpaceX 扩展全球互联网接入计划的关键一环。

基本信息
目录编号:
54794
目录名称:
STARLINK-5392
国际标识:
2022-175AN
轨道中心:
EARTH
卫星名称:
星链-5392
卫星全名:
星链-5392 (STARLINK-5392 )
卫星状态:
已陨落 最后检测时间 2025-04-18
发射日期:
2022-12-17 UTC
国别 :
美国 (US)
星等 :
--
轨道信息
数据来源 国际轨道数据
星历时间: 2025-04-18T11:24:29+0800
轨道信息已过期200天
半长轴: 6585.014km
偏心率: 0.0009635
轨道倾角: 53.169°
近地点辐角 246.187°
升交点赤经 349.384°
平近点角 249.121°
近地点: 200.534km
远地点: 213.224km
周期: 88.633分钟
每日圈数: 16.246797
详细信息
固有亮度:
5
最大亮度:
2.5
卫星平台:
Starlink v1.5
覆盖范围:
全球
运营商:
太空探索技术公司
运营商所在国:
美国
制造商(研发单位):
太空探索技术公司
制造商所在国:
美国
使用方式:
暂无
卫星简介
星链(Starlink)计划是由太空探索技术公司(SpaceX)提出的一个巨型低轨卫星互联网星座项目,计划在2019年至2024年间在太空搭建由约1.2万颗卫星组成的“星链”网络,其中1584颗将部署在地球上空550千米处的近地轨道,并从2020年开始工作。该卫星仍在工作。